RH
26 26 23 18 15 13 12 10 8 6 6 5 6 7 8 7 6 6 5 6 6 6 6 6 6 6 6 6 6 6 6 6 6 6 7 7 8 8 8 9 9 9
16 17 15 13 11 10 9 8 8 8 7 7 7 7 7 7 7 7 7 7 7 7 7 7 8 8 9 9 9 10 10 10 10 11 12 13 15 15 16 17 18 18
8 9 9 9 9 9 10 9 9 10 10 10 10 11 11 11 11 11 11 12 13 14 14 15 16 18 19 20 21 23 24 24 24 25 26 28 29 30 30 31 32 33
11 11 11 12 13 13 14 15 16 18 19 20 21 23 23 24 25 24 25 26 27 28 29 30 31 32 32 32 33 35 35 35 35 36 37 38 39 40 41 42 43 44
25 26 26 26 26 27 28 29 31 33 34 36 36 35 35 35 36 36 36 36 37 38 39 39 40 40 39 38 38 40 40 41 43 45 47 49 51 53 54 55 57 58
37 37 38 37 36 37 38 38 39 39 39 39 38 37 35 34 33 34 37 38 38 40 41 43 45 44 44 45 47 49 51 54 56 56 57 57 58 57 57 57 58 60
39 40 39 40 40 40 40 41 40 39 36 34 33 33 34 35 36 38 41 43 44 45 49 52 53 54 55 57 58 58 58 57 55 54 53 49 45 41 39 37 37 38
41 42 42 42 43 42 42 40 37 34 32 32 32 33 35 37 40 43 45 48 50 53 56 57 56 56 57 57 55 51 46 40 36 34 32 29 25 22 20 19 18 18
42 43 44 44 43 41 39 36 33 31 30 31 33 35 37 39 42 44 46 48 50 52 51 49 47 48 50 49 45 38 30 24 20 19 18 16 15 14 13 13 13 12
42 43 43 42 40 38 34 31 30 30 31 33 36 40 43 46 49 49 49 50 49 47 45 41 39 38 37 33 28 22 17 14 12 12 11 11 10 9 9 8 8 8
39 40 39 38 35 33 30 30 33 36 39 42 45 47 49 52 53 52 49 45 41 37 33 28 25 25 22 18 13 10 8 8 8 7 7 7 7 6 7 7 7 7
36 35 33 33 32 31 33 37 41 43 44 45 45 46 47 48 48 46 41 35 30 26 20 16 15 15 14 11 8 7 7 7 7 7 7 8 8 8 8 9 8 8
34 33 32 33 33 34 39 44 44 43 42 40 37 35 33 31 30 30 29 27 23 17 11 10 10 10 10 9 9 9 9 9 9 9 8 8 8 8 8 7 7 6
30 31 32 34 35 37 41 44 43 42 39 36 31 27 23 22 22 23 23 18 13 11 9 9 10 10 11 10 10 10 9 9 8 8 7 7 6 6 5 4 4 4
28 29 30 32 35 37 40 42 42 41 38 34 30 23 20 24 26 24 18 12 9 9 10 10 11 11 10 10 9 8 8 7 7 6 5 5 4 4 4 4 3 3
29 30 31 33 36 38 41 43 42 40 37 32 28 24 23 24 21 15 11 10 9 9 9 10 10 9 8 8 7 7 6 6 5 5 4 4 4 4 3 3 3 3
34 36 38 38 39 39 40 39 35 31 29 30 32 32 27 20 12 9 9 10 10 10 9 9 8 8 8 7 6 6 5 5 4 4 4 4 4 4 3 3 3 3
37 38 39 37 35 35 33 27 20 17 18 23 26 23 16 11 9 10 11 10 10 9 9 8 8 8 7 6 5 5 4 4 4 4 4 4 4 4 4 4 3 3
30 30 30 30 30 29 24 16 10 9 9 11 11 9 8 10 11 10 9 9 9 9 8 8 8 7 6 5 4 4 4 4 4 4 4 4 4 4 4 3 3 3
24 24 23 24 24 21 16 9 6 5 6 6 6 8 9 10 10 9 9 9 9 9 9 8 8 6 5 5 4 4 4 4 4 4 5 4 4 4 3 3 3 2
24 23 21 20 18 15 11 7 5 5 6 7 8 9 9 9 9 8 8 8 9 9 8 7 6 5 4 4 5 5 5 5 5 4 4 4 3 3 2 2 2 3
24 23 22 20 17 14 10 8 6 6 6 7 8 9 9 9 8 8 8 9 9 8 7 6 5 4 5 5 5 5 5 4 4 3 3 3 2 2 3 3 3 5
23 23 22 21 18 15 12 10 8 7 8 8 9 10 10 9 8 9 9 9 8 6 5 5 4 4 5 5 5 5 4 3 2 3 3 3 3 4 6 8 11 14
24 23 22 21 19 17 14 12 10 9 9 9 10 10 10 9 9 9 8 7 6 5 4 4 5 5 5 5 4 3 2 3 3 4 4 5 7 10 13 17 21 24
24 24 23 22 21 19 16 14 12 11 10 10 11 11 10 10 9 9 8 6 5 5 5 5 5 5 4 3 3 2 3 5 7 7 8 11 13 16 19 22 24 25
25 25 24 24 24 22 19 15 13 12 11 11 12 11 10 10 9 8 6 5 5 5 5 5 5 4 3 2 3 5 7 9 10 11 12 14 16 18 20 21 22 24
Wind_Speed
9 9 9 8 8 8 7 7 7 6 5 5 4 4 4 4 5 5 6 6 7 8 9 10 11 12 13 14 15 16 17 18 19 19 20 20 21 22 23 24 24 25
8 7 6 6 6 6 6 6 5 5 5 5 5 5 5 5 6 7 8 8 10 10 11 12 13 14 15 16 17 18 19 20 21 21 22 22 23 24 25 25 26 27
6 5 5 5 5 5 5 4 5 5 6 6 6 5 6 6 7 9 10 11 12 13 13 14 15 16 17 18 18 18 20 22 23 23 24 24 24 26 26 27 27 28
5 5 4 4 4 4 4 4 5 5 7 8 8 7 7 7 9 10 11 13 14 14 15 16 17 18 19 20 19 19 21 22 23 24 25 26 26 27 28 29 30 30
4 4 4 5 5 5 5 5 5 5 6 8 9 10 9 8 9 9 11 13 14 14 15 16 18 19 21 21 20 21 22 23 24 26 27 28 29 29 30 31 31 32
4 4 5 5 6 6 6 6 6 6 6 7 8 10 10 10 10 10 11 13 14 15 15 16 18 20 21 22 22 23 24 25 26 27 27 28 29 30 30 30 30 31
4 5 5 6 7 7 7 7 7 7 7 8 9 10 11 11 12 12 13 14 15 16 17 18 21 22 23 23 23 24 25 26 27 28 28 28 29 29 30 30 30 30
5 6 7 7 8 8 9 9 9 9 9 10 10 11 11 11 12 13 14 15 16 17 18 20 22 23 23 24 24 25 26 28 29 30 30 30 30 30 31 31 31 31
6 7 7 8 9 9 10 10 10 10 11 10 10 11 12 13 14 15 16 17 18 19 20 22 24 24 25 25 26 27 29 30 31 32 32 32 32 32 32 33 33 33
7 7 7 8 9 10 10 10 10 11 11 11 11 12 13 15 16 17 18 19 20 21 22 24 26 27 27 28 28 29 30 31 31 32 33 33 33 33 34 33 33 33
8 8 8 8 9 9 10 10 10 10 11 12 12 13 14 16 17 18 20 21 22 22 23 25 27 28 28 29 30 31 30 31 31 31 32 32 32 32 32 31 31 31
8 8 9 9 9 10 9 10 10 10 11 12 13 14 15 16 18 19 21 23 24 24 25 26 26 27 28 29 30 30 30 30 30 30 30 30 29 29 29 29 29 29
7 8 9 10 10 9 9 9 10 11 12 13 14 15 17 18 19 20 22 23 24 25 26 26 26 27 27 28 29 29 29 29 29 29 28 28 28 28 28 29 29 29
8 8 9 9 9 9 9 10 12 13 14 15 16 17 18 19 20 21 22 24 24 25 25 25 26 26 26 27 28 28 28 28 28 28 28 28 29 29 29 30 30 31
9 9 9 9 9 9 11 12 14 15 16 17 17 18 18 19 19 21 24 25 25 26 26 25 25 25 25 26 27 27 27 28 28 29 29 30 30 30 31 31 32 32
9 10 10 10 10 10 12 15 16 17 17 18 19 19 18 19 21 23 25 25 26 27 27 27 25 25 25 26 27 27 28 28 29 30 30 31 31 32 32 33 34 35
8 8 8 9 10 11 13 15 16 17 18 18 18 18 19 21 23 24 25 25 26 27 27 27 26 26 26 26 27 28 29 29 30 31 31 32 32 33 34 35 36 37
7 8 8 9 11 12 13 15 16 17 18 18 18 19 21 23 24 25 25 25 26 26 27 27 27 26 27 27 28 29 30 30 31 32 33 33 34 35 36 37 38 40
7 8 9 10 11 12 13 15 16 17 18 19 20 21 22 23 24 25 25 25 25 26 27 27 27 27 28 28 29 30 31 32 33 33 34 35 36 37 38 39 40 41
8 9 11 12 13 13 14 15 17 18 18 20 21 23 23 24 25 25 25 25 25 26 27 27 28 28 28 29 30 31 32 33 34 35 36 38 39 40 41 41 41 41
8 10 12 13 14 15 16 17 18 19 20 21 23 24 25 25 25 25 25 25 26 26 27 28 28 28 29 30 31 32 33 35 36 38 40 41 42 42 42 41 40 38
8 11 12 14 16 17 18 19 19 20 21 22 24 25 25 26 25 25 25 26 26 27 27 27 28 28 29 30 32 33 35 37 39 41 42 42 42 41 40 39 37 34
9 11 13 15 16 18 19 20 21 21 22 23 24 25 25 25 25 25 26 26 26 27 27 27 28 29 30 32 33 35 37 39 40 40 40 39 39 37 36 33 31 29
10 12 13 15 16 18 19 21 21 22 23 24 25 25 25 24 25 26 26 26 26 26 27 28 29 30 32 34 36 38 38 38 37 36 36 35 34 33 31 30 29 28
11 12 14 15 16 18 19 21 22 23 24 25 25 24 24 24 25 26 26 26 26 26 27 28 30 32 34 36 37 37 36 34 33 32 32 31 31 30 30 30 30 30
12 13 14 16 17 18 20 22 23 24 24 25 24 24 24 25 26 27 26 25 25 26 28 30 32 34 36 37 36 34 33 32 31 31 31 31 31 31 31 32 32 32
Wind_Direction
66 63 62 60 57 56 53 46 40 37 32 27 25 26 12 353 335 323 318 306 295 291 289 289 291 293 292 290 288 286 285 284 285 286 287 287 287 286 286 285 285 284
64 64 59 53 50 45 40 33 23 16 7 356 3 7 355 341 327 315 311 307 303 301 298 296 295 293 291 289 289 289 290 288 288 288 289 288 288 287 287 287 287 287
51 51 46 41 40 35 30 20 5 359 348 337 342 344 333 326 319 313 312 309 304 301 300 298 295 291 288 287 287 289 289 288 289 289 289 288 288 288 288 287 287 286
30 27 19 12 9 5 357 348 349 348 335 327 324 321 319 317 312 309 305 298 296 296 295 293 291 290 287 286 286 287 287 286 288 289 289 289 289 288 288 288 287 287
356 354 347 336 333 334 332 332 337 337 329 323 317 311 311 308 300 294 289 287 288 289 287 288 288 287 286 288 290 291 291 291 291 293 293 294 294 293 292 292 291 290
341 340 335 330 331 330 329 331 334 330 321 312 308 308 311 308 301 296 292 290 290 290 292 294 293 292 293 298 300 300 300 300 299 299 298 298 298 298 297 296 295 294
341 339 337 335 331 327 326 330 330 324 319 317 316 315 315 312 308 305 301 300 301 302 305 305 301 300 303 305 306 305 304 304 303 301 300 299 299 298 298 297 296 295
338 338 336 331 327 325 326 329 329 327 326 326 322 317 313 311 309 306 305 305 306 308 309 306 303 304 306 306 306 306 305 304 303 301 299 298 297 297 296 296 295 294
342 341 337 331 327 326 326 329 330 328 327 325 321 316 315 315 314 310 309 309 309 312 312 308 306 306 306 305 304 303 302 302 300 299 297 296 296 295 295 294 294 293
349 345 337 330 327 325 326 330 332 330 327 325 322 319 319 319 317 313 312 313 313 315 313 308 305 305 304 303 301 300 300 299 298 297 296 296 295 295 295 295 294 294
348 339 330 327 326 327 331 336 337 332 327 324 322 322 321 319 316 313 312 312 312 311 308 304 303 303 302 301 300 299 298 298 297 297 296 296 296 296 296 296 296 296
343 331 326 329 331 334 339 339 334 328 324 323 323 322 319 315 312 311 310 310 310 310 307 304 303 301 300 299 299 299 300 300 299 299 298 299 299 299 299 299 298 297
336 328 329 334 336 336 336 330 326 326 325 325 324 321 318 314 311 310 309 309 310 309 308 306 305 304 303 302 302 302 302 302 302 302 302 302 302 301 301 300 298 298
334 332 334 335 333 330 328 325 326 328 326 323 321 318 316 313 311 311 311 311 312 310 308 308 308 308 307 306 305 305 305 305 305 305 305 304 303 302 301 300 299 299
339 340 341 337 332 327 324 325 327 327 324 321 319 317 315 312 311 312 313 314 314 311 310 311 311 311 310 308 308 307 307 307 306 306 305 303 302 301 301 300 300 299
347 347 344 338 331 324 322 323 324 322 319 318 317 315 315 315 316 315 315 315 315 313 313 315 315 314 312 311 310 309 308 307 306 304 303 302 302 301 301 300 299 298
353 349 343 336 330 324 322 322 321 318 316 316 316 315 317 320 319 318 317 316 316 315 315 316 316 315 313 310 308 307 307 306 304 303 302 302 301 300 300 298 297 296
353 348 341 335 331 328 325 324 322 321 320 319 318 319 321 322 319 317 317 316 316 316 316 316 315 314 311 309 308 307 306 306 305 304 303 302 300 299 298 298 297 297
350 349 344 338 336 333 329 328 328 327 327 325 323 323 323 322 319 317 317 317 317 317 316 315 314 313 311 310 309 308 308 307 306 304 302 301 300 299 299 298 298 297
346 346 343 340 339 336 332 332 333 332 332 329 327 325 324 321 319 318 319 320 320 318 317 316 314 313 312 311 310 310 309 307 306 304 303 302 302 302 301 300 299 298
338 338 338 338 338 338 337 336 336 336 334 331 327 325 323 321 321 321 321 321 321 319 318 316 314 313 312 312 311 310 309 308 307 306 306 306 305 304 303 301 300 299
331 332 335 337 338 339 339 339 338 336 332 329 327 325 323 322 322 322 323 323 322 321 318 316 314 313 313 312 312 311 311 311 311 311 310 309 308 306 304 303 303 302
326 329 332 334 336 337 337 336 335 333 330 328 326 324 323 323 323 324 325 325 324 322 319 316 315 315 315 314 314 315 316 316 316 315 314 313 312 312 312 313 313 313
320 324 327 328 331 332 332 332 330 329 327 326 325 324 324 324 324 325 327 327 325 322 318 317 317 318 318 318 319 320 321 321 321 320 320 321 321 322 323 323 322 321
315 317 320 322 324 326 327 327 326 326 326 326 325 324 324 325 327 329 330 329 325 321 318 319 321 322 322 323 324 325 326 327 327 326 327 328 328 327 327 326 324 323
308 311 314 316 318 321 323 323 322 323 325 325 324 324 326 328 330 331 330 327 323 321 321 324 325 325 326 327 328 330 330 330 329 328 327 327 327 326 326 325 323 322